COSMOS 2251 DEB, 34784

Orbit data source: Space-Track

COSMOS 2251 DEB, 34784 is space debris in LEO originally from a launch on Wed, 16 Jun 1993 UTC launched from the Plesetsk Missile And Space Complex (PKMTR). The debris from Iridium 33, an American commercial communications satellite, has been tracked extensively since its accidental collision with the defunct Russian satellite Cosmos 2251 in 2009. This event, occurring at high speed in low Earth orbit (LEO), generated thousands of pieces of space debris, significantly increasing the risk of further collisions. The Iridium 33 debris cloud has impacted space traffic management and orbital debris mitigation strategies, making it a subject of ongoing study in space situational awareness.

Loading next visibility...
Identifier
34784, 1993-036AAM
Orbit
LEO
Country
Flag of CISCIS
Related business
Manufacturer
Unknown
Mission
Spacecraft
Bus & Motor
Unknown
Mass
Unknown
Launch date (UTC)
1993-06-16 (32 years ago)
Launch vehicle
Unknown
Launch site
Plesetsk Missile And Space Complex (PKMTR)
Object type
Payload
Rocket body
Debris
Shape & HBR
Unknown
Radar Cross Section
Small (<0.1 m²)

Expand to show TLE details & history
Last TLE update: 22 hours ago

TLE from 22 hours ago
0 COSMOS 2251 DEB
1 34784U 93036AAM 25259.89522989  .00001738  00000-0  36102-3 0  9996
2 34784  74.0066 130.5011 0051764 318.3486  41.3742 14.60119656872678
Epoch: 2025-09-16T21:29Z
TLE epoch observation values (Epoch: 2025-09-16T21:29:07.862Z)
Latitude
0.00002°
Longitude
172.13938°
Altitude
668.039 km
Speed
7.538 km/s
True Right ascension
08h 42m 00s
True Declination
0° 00' 00"
Sunlit
Object was in daylight at epoch
Visualization orbit readout
Latitude
Unknown
Longitude
Unknown
Altitude
Unknown
Speed
Unknown
Apparent Right ascension
Unknown
Apparent Declination
Unknown
Sunlit
N/A
Visualization observer readout
Local Sidereal Time
12:44:06
Azimuth
Unknown
Elevation
Unknown
Doppler factor
Unknown
Orbital elements
Apogee altitude
726.977 km
Perigee altitude
653.798 km
Semi-major axis
7,068.524 km
Eccentricity
0.00518
Inclination
74.0066°
RAAN
130.5011°
Arg. of periapsis
318.3486°
True anomaly
41.76818°
Mean anomaly
41.3742°
Eccentric anomaly
41.571°
Mean motion
3.65216 °/min
Orbital period
98.57 mins
BSTAR
0.00036102
Loading maneuver chart data...
Computing Atmospheric mass density...

Documentation

Showing up to 5 results
|